Baku, Azerbaijan

6:25 PM +04 on February 22, 2018 (GMT +0400)
Bina

Weather History for UBBB - February, 2018

Change the Weather History Date:

Saturday, February 10, 2018

  Actual Average Record
Temperature  
Mean Temperature 43 °F -  
Max Temperature 46 °F - - ()
Min Temperature 40 °F - - ()
Degree Days  
Heating Degree Days 22    
Moisture  
Dew Point 39 °F    
Average Humidity 85    
Maximum Humidity 100    
Minimum Humidity 66    
Precipitation  
Precipitation 0.31 in - - ()
Sea Level Pressure  
Sea Level Pressure 30.13 in    
Wind  
Wind Speed 5 mph ()    
Max Wind Speed 9 mph    
Max Gust Speed -    
Visibility 5.9 miles    
Events Rain    
T = Trace of Precipitation, MM = Missing Value Source: Averaged Metar Reports

Daily Weather History Graph

Daily Weather History Graph

Search for Another Location

Airport or City:

Trip Planner

Search our weather history database for the weather conditions in past years. The results will help you decide how hot, cold, wet, or windy it might be!

Date:

Astronomy

Feb. 10, 2018 Rise Set
Actual Time 7:39 AM +04 6:08 PM +04
Civil Twilight 7:11 AM +04 6:36 PM +04
Nautical Twilight 6:39 AM +04 7:09 PM +04
Astronomical Twilight 6:07 AM +04 7:40 PM +04
Moon 3:29 AM +04 (2/10) 1:34 PM +04 (2/10)
Length of Visible Light 11h 25m
Length of Day
10h 28m
Waning Crescent, 26% of the Moon is Illuminated
Feb 10
Waning Crescent
Feb 16
New
Feb 23
First Quarter
Mar 2
Full
Mar 9
Last Quarter

Hourly Weather History & Observations

Time (+04) Temp. Windchill Dew Point Humidity Pressure Visibility Wind Dir Wind Speed Gust Speed Precip Events Conditions
12:00 AM 46.4 °F 41.9 °F 42.8 °F 87% 30.06 in 6.2 mi SE 9.2 mph - N/A   Overcast
12:30 AM 46.4 °F 42.4 °F 42.8 °F 87% 30.06 in 6.2 mi SSE 8.1 mph - N/A   Overcast
1:00 AM 46 °F - 41 °F 77% 30.06 in 6 mi ESE 4.5 mph - -   Overcast
1:00 AM 46.4 °F 42.9 °F 42.8 °F 87% 30.06 in 6.2 mi SSE 6.9 mph - N/A   Overcast
1:30 AM 44.6 °F - 42.8 °F 93% 30.06 in 6.2 mi South 1.2 mph - N/A   Overcast
2:00 AM 44.6 °F - 42.8 °F 93% 30.06 in 6.2 mi Calm Calm - N/A Rain Light Rain
2:30 AM 44.6 °F 42.2 °F 42.8 °F 93% 30.06 in 6.2 mi East 4.6 mph - N/A Rain Light Rain
3:00 AM 44.6 °F 42.2 °F 42.8 °F 93% 30.06 in 6.2 mi ENE 4.6 mph - N/A Rain Light Rain
3:30 AM 44.6 °F 42.2 °F 42.8 °F 93% 30.06 in 6.2 mi East 4.6 mph - N/A Rain Light Rain
4:00 AM 44 °F - 42 °F 88% 30.06 in 6 mi Calm Calm - - Rain Light Rain
4:00 AM 44.6 °F 43.1 °F 42.8 °F 93% 30.06 in 6.2 mi ENE 3.5 mph - N/A Rain Light Rain
4:30 AM 44.6 °F - 42.8 °F 93% 30.06 in 6.2 mi East 2.3 mph - N/A Rain Light Rain
5:00 AM 44.6 °F 42.2 °F 42.8 °F 93% 30.06 in 3.7 mi ENE 4.6 mph - N/A Rain Light Rain
5:30 AM 44.6 °F 41.4 °F 44.6 °F 100% 30.06 in - ENE 5.8 mph - N/A Rain Light Rain
6:00 AM 44.6 °F 42.2 °F 44.6 °F 100% 30.06 in 3.1 mi ENE 4.6 mph - N/A Rain Light Rain
6:30 AM 44.6 °F 40.7 °F 42.8 °F 93% 30.06 in 3.1 mi ENE 6.9 mph - N/A Rain Light Rain
7:00 AM 43 °F - 41 °F 92% 30.09 in 6 mi NE 2.2 mph - - Rain Light Rain
7:00 AM 44.6 °F 41.4 °F 42.8 °F 93% 30.09 in 5.0 mi East 5.8 mph - N/A Rain Light Rain
7:30 AM 42.8 °F 39.3 °F 41.0 °F 93% 30.09 in 5.0 mi East 5.8 mph - N/A Rain Light Rain
8:00 AM 42.8 °F 37.5 °F 41.0 °F 93% 30.12 in 6.2 mi East 9.2 mph - N/A Rain Light Rain
8:30 AM 42.8 °F 37.5 °F 41.0 °F 93% 30.12 in 6.2 mi East 9.2 mph - N/A Rain Light Rain
9:00 AM 42.8 °F 38.0 °F 39.2 °F 87% 30.12 in 6.2 mi East 8.1 mph - N/A Rain Light Rain
9:30 AM 42.8 °F 38.0 °F 39.2 °F 87% 30.15 in 6.2 mi East 8.1 mph - N/A Rain Light Rain
10:00 AM 42 °F - 39 °F 86% 30.15 in 6 mi NNE 4.5 mph - - Rain Light Rain
10:00 AM 42.8 °F 38.6 °F 41.0 °F 93% 30.15 in 6.2 mi ENE 6.9 mph - N/A Rain Light Rain
10:30 AM 42.8 °F 38.0 °F 41.0 °F 93% 30.15 in 6.2 mi ENE 8.1 mph - N/A Rain Light Rain
11:00 AM 42.8 °F 38.6 °F 39.2 °F 87% 30.15 in 6.2 mi East 6.9 mph - N/A Rain Light Rain
11:30 AM 42.8 °F 38.0 °F 39.2 °F 87% 30.15 in 6.2 mi East 8.1 mph - N/A Rain Light Rain
12:00 PM 42.8 °F 39.3 °F 39.2 °F 87% 30.18 in 6.2 mi East 5.8 mph - N/A Rain Light Rain
12:30 PM 42.8 °F 38.6 °F 39.2 °F 87% 30.15 in 6.2 mi East 6.9 mph - N/A Rain Light Rain
1:00 PM 42 °F - 40 °F 88% 30.17 in 6 mi NNE 4.5 mph - - Rain Light Rain
1:00 PM 42.8 °F 38.0 °F 39.2 °F 87% 30.15 in 6.2 mi ENE 8.1 mph - N/A Rain Light Rain
1:30 PM 42.8 °F 38.6 °F 41.0 °F 93% 30.15 in 6.2 mi ENE 6.9 mph - N/A Rain Light Rain
2:00 PM 42.8 °F 38.6 °F 41.0 °F 93% 30.15 in 6.2 mi NE 6.9 mph - N/A Rain Light Rain
2:30 PM 42.8 °F 38.6 °F 41.0 °F 93% 30.15 in 6.2 mi NE 6.9 mph - N/A   Overcast
3:00 PM 42.8 °F 37.5 °F 39.2 °F 87% 30.15 in 6.2 mi NE 9.2 mph - N/A Rain Light Rain
3:30 PM 42.8 °F 37.5 °F 39.2 °F 87% 30.15 in 6.2 mi NE 9.2 mph - N/A   Mostly Cloudy
4:00 PM 43 °F - 37 °F 71% 30.16 in 6 mi NNE 4.5 mph - -   Partly Cloudy
4:00 PM 42.8 °F 37.5 °F 37.4 °F 81% 30.15 in - ENE 9.2 mph - N/A   Clear
4:30 PM 42.8 °F 37.5 °F 37.4 °F 81% 30.15 in - NE 9.2 mph - N/A   Clear
5:00 PM 42.8 °F 37.5 °F 35.6 °F 76% 30.15 in - NE 9.2 mph - N/A   Clear
5:30 PM 42.8 °F 38.0 °F 35.6 °F 76% 30.18 in - NE 8.1 mph - N/A   Clear
6:00 PM 41.0 °F 36.4 °F 35.6 °F 81% 30.18 in 6.2 mi NE 6.9 mph - N/A   Mostly Cloudy
6:30 PM 41.0 °F 37.1 °F 35.6 °F 81% 30.18 in 6.2 mi NE 5.8 mph - N/A Rain Light Rain
7:00 PM 41 °F - 33 °F 66% 30.20 in 6 mi Calm Calm - -   Overcast
7:00 PM 41.0 °F 38.0 °F 35.6 °F 81% 30.21 in 6.2 mi NNE 4.6 mph - N/A   Overcast
7:30 PM 41.0 °F 38.0 °F 35.6 °F 81% 30.21 in 6.2 mi NNE 4.6 mph - N/A   Overcast
8:00 PM 41.0 °F 36.4 °F 33.8 °F 76% 30.21 in 6.2 mi NE 6.9 mph - N/A   Overcast
8:30 PM 41.0 °F 36.4 °F 33.8 °F 76% 30.21 in 6.2 mi ENE 6.9 mph - N/A   Overcast
9:00 PM 41.0 °F 37.1 °F 33.8 °F 76% 30.21 in 6.2 mi East 5.8 mph - N/A   Overcast
9:30 PM 41.0 °F 37.1 °F 32.0 °F 70% 30.21 in 6.2 mi ENE 5.8 mph - N/A   Overcast
10:00 PM 40 °F - 33 °F 67% 30.21 in 6 mi Calm Calm - -   Overcast
10:00 PM 41.0 °F 38.0 °F 32.0 °F 70% 30.21 in - ENE 4.6 mph - N/A   Clear
10:30 PM 41.0 °F - 33.8 °F 76% 30.21 in - East 2.3 mph - N/A   Clear
11:00 PM 41.0 °F 39.0 °F 32.0 °F 70% 30.21 in - East 3.5 mph - N/A   Clear
11:30 PM 41.0 °F - 33.8 °F 76% 30.21 in 6.2 mi Calm Calm - N/A   Mostly Cloudy